Location: B?lite?ti
(46.2833°N, 22.7333°E)
Time: 16:45:59
(UTC+00:00)

Cosmos-2242 - Pass Details

Date: 24 January 2021
Orbit: 591 x 616 km, 82.5° (Epoch: 01 March)

Event Time Altitude Azimuth Distance (km) Brightness Sun altitude
Rises 17:51:01 0° 346° (NNW) 2,847 6.6 -25.6°
Reaches altitude 10° 17:53:15 10° 343° (NNW) 1,943 5.8 -25.9°
Maximum altitude 17:57:26 55° 266° (W) 724 3.6 -26.7°
Enters shadow 17:59:10 32° 204° (SSW) 1,037 4.3 -27.0°
Exits shadow 18:03:37 - 184° (S) 2,741 6.4 -27.7°
Sets 18:03:52 0° 184° (S) 2,843 6.5 -27.8°
